Time,TemperatureF,DewpointF,PressureIn,WindDirection,WindDirectionDegrees,WindSpeedMPH,WindSpeedGustMPH,Humidity,HourlyPrecipIn,Conditions,Clouds,dailyrainin,SoftwareType,DateUTC
2013-07-27 00:09:00,66.9,65.0,30.09,South,174,0.0,1.0,93,0.00,,,0.00,weatherlink.com 1.10,2013-07-27 04:09:00,
2013-07-27 00:24:00,66.9,65.0,30.09,South,174,0.0,1.0,93,0.00,,,0.00,weatherlink.com 1.10,2013-07-27 04:24:00,
2013-07-27 00:39:00,66.8,65.0,30.09,South,174,0.0,1.0,94,0.01,,,0.01,weatherlink.com 1.10,2013-07-27 04:39:00,
2013-07-27 00:54:00,66.7,65.0,30.09,South,173,1.0,2.0,94,0.04,,,0.04,weatherlink.com 1.10,2013-07-27 04:54:00,
2013-07-27 01:09:00,66.5,65.0,30.09,South,173,0.0,2.0,95,0.09,,,0.09,weatherlink.com 1.10,2013-07-27 05:09:00,
2013-07-27 01:24:00,66.4,65.0,30.09,South,173,0.0,2.0,95,0.16,,,0.16,weatherlink.com 1.10,2013-07-27 05:24:00,
2013-07-27 01:39:00,66.3,65.0,30.08,South,173,1.0,2.0,95,0.15,,,0.16,weatherlink.com 1.10,2013-07-27 05:39:00,
2013-07-27 01:54:00,64.5,63.0,30.07,South,169,5.0,11.0,93,0.36,,,0.41,weatherlink.com 1.10,2013-07-27 05:54:00,
2013-07-27 02:09:00,63.6,62.0,30.07,SSE,167,1.0,10.0,94,0.47,,,0.56,weatherlink.com 1.10,2013-07-27 06:09:00,
2013-07-27 02:24:00,63.5,62.0,30.06,SSE,159,1.0,10.0,93,0.44,,,0.60,weatherlink.com 1.10,2013-07-27 06:24:00,
2013-07-27 02:39:00,63.4,61.0,30.06,SSE,159,1.0,4.0,93,0.44,,,0.61,weatherlink.com 1.10,2013-07-27 06:39:00,
2013-07-27 02:54:00,63.7,62.0,30.05,SSE,160,1.0,5.0,94,0.20,,,0.63,weatherlink.com 1.10,2013-07-27 06:54:00,
2013-07-27 03:09:00,63.9,62.0,30.05,SSE,160,0.0,2.0,94,0.07,,,0.63,weatherlink.com 1.10,2013-07-27 07:09:00,
2013-07-27 03:24:00,63.6,62.0,30.05,SSE,160,1.0,1.0,95,0.02,,,0.63,weatherlink.com 1.10,2013-07-27 07:24:00,
2013-07-27 03:39:00,63.8,63.0,30.04,SSE,159,1.0,3.0,96,0.02,,,0.63,weatherlink.com 1.10,2013-07-27 07:39:00,
2013-07-27 03:54:00,63.6,62.0,30.04,SSE,160,0.0,1.0,95,0.00,,,0.63,weatherlink.com 1.10,2013-07-27 07:54:00,
2013-07-27 04:10:00,63.6,62.0,30.04,SSE,160,1.0,1.0,95,0.01,,,0.64,weatherlink.com 1.10,2013-07-27 08:10:00,
2013-07-27 04:25:00,63.7,63.0,30.04,SSE,163,0.0,2.0,96,0.32,,,0.95,weatherlink.com 1.10,2013-07-27 08:25:00,
2013-07-27 04:40:00,64.0,63.0,30.04,SSE,165,0.0,2.0,96,0.68,,,1.31,weatherlink.com 1.10,2013-07-27 08:40:00,
2013-07-27 04:55:00,64.2,63.0,30.04,SSE,165,0.0,2.0,96,0.68,,,1.31,weatherlink.com 1.10,2013-07-27 08:55:00,
2013-07-27 05:10:00,64.2,63.0,30.03,SSE,165,1.0,5.0,96,0.91,,,1.55,weatherlink.com 1.10,2013-07-27 09:10:00,
2013-07-27 05:25:00,64.5,64.0,30.03,SSE,165,1.0,4.0,97,0.67,,,1.64,weatherlink.com 1.10,2013-07-27 09:25:00,
2013-07-27 05:40:00,64.5,64.0,30.03,SSE,165,1.0,3.0,97,0.33,,,1.64,weatherlink.com 1.10,2013-07-27 09:40:00,
2013-07-27 05:55:00,64.7,64.0,30.03,SSE,165,0.0,1.0,97,0.33,,,1.64,weatherlink.com 1.10,2013-07-27 09:55:00,
2013-07-27 06:10:00,64.7,64.0,30.04,SSE,165,0.0,2.0,97,0.08,,,1.64,weatherlink.com 1.10,2013-07-27 10:10:00,
2013-07-27 06:25:00,64.7,64.0,30.04,SSE,165,0.0,2.0,97,0.00,,,1.64,weatherlink.com 1.10,2013-07-27 10:25:00,
2013-07-27 06:55:00,64.7,64.0,30.04,SSE,165,0.0,1.0,97,0.00,,,1.64,weatherlink.com 1.10,2013-07-27 10:55:00,
2013-07-27 07:10:00,64.7,64.0,30.03,SSE,165,0.0,0.0,97,0.00,,,1.64,weatherlink.com 1.10,2013-07-27 11:10:00,
2013-07-27 07:29:00,64.8,64.0,30.04,SSE,165,0.0,0.0,97,0.04,,,1.68,weatherlink.com 1.10,2013-07-27 11:29:00,
2013-07-27 07:40:00,64.9,64.0,30.04,SSE,165,0.0,0.0,97,0.04,,,1.68,weatherlink.com 1.10,2013-07-27 11:40:00,
2013-07-27 07:55:00,65.0,64.0,30.04,SSE,165,0.0,0.0,97,0.08,,,1.72,weatherlink.com 1.10,2013-07-27 11:55:00,
2013-07-27 08:10:00,64.8,64.0,30.04,SSE,165,0.0,3.0,97,0.25,,,1.89,weatherlink.com 1.10,2013-07-27 12:10:00,
2013-07-27 08:40:00,65.2,64.0,30.05,SSE,165,0.0,1.0,97,0.23,,,1.91,weatherlink.com 1.10,2013-07-27 12:40:00,
2013-07-27 08:55:00,65.2,64.0,30.05,SSE,165,3.0,4.0,97,0.18,,,1.91,weatherlink.com 1.10,2013-07-27 12:55:00,
2013-07-27 09:10:00,64.2,63.0,30.05,SSE,162,1.0,7.0,97,0.03,,,1.92,weatherlink.com 1.10,2013-07-27 13:10:00,
2013-07-27 09:55:00,64.2,63.0,30.05,SSE,162,2.0,4.0,97,0.05,,,1.96,weatherlink.com 1.10,2013-07-27 13:55:00,
2013-07-27 10:10:00,65.3,65.0,30.04,SSE,162,4.0,4.0,97,0.04,,,1.96,weatherlink.com 1.10,2013-07-27 14:10:00,
2013-07-27 10:25:00,65.9,65.0,30.03,SSE,162,0.0,3.0,97,0.00,,,1.96,weatherlink.com 1.10,2013-07-27 14:25:00,
2013-07-27 10:40:00,66.2,65.0,30.03,SSE,162,1.0,5.0,96,0.00,,,1.96,weatherlink.com 1.10,2013-07-27 14:40:00,
2013-07-27 10:55:00,67.3,66.0,30.03,SSE,162,2.0,3.0,96,0.00,,,1.96,weatherlink.com 1.10,2013-07-27 14:55:00,
2013-07-27 11:25:00,68.5,66.0,30.03,SSE,162,2.0,4.0,92,0.00,,,1.96,weatherlink.com 1.10,2013-07-27 15:25:00,
2013-07-27 11:40:00,68.9,66.0,30.04,SSE,160,1.0,7.0,91,0.00,,,1.96,weatherlink.com 1.10,2013-07-27 15:40:00,
2013-07-27 11:55:00,69.5,66.0,30.04,SSE,159,0.0,5.0,89,0.00,,,1.96,weatherlink.com 1.10,2013-07-27 15:55:00,
2013-07-27 12:11:00,71.5,67.0,30.04,SSE,160,0.0,4.0,86,0.00,,,1.96,weatherlink.com 1.10,2013-07-27 16:11:00,
2013-07-27 12:25:00,73.1,67.0,30.04,SSE,160,1.0,5.0,81,0.00,,,1.96,weatherlink.com 1.10,2013-07-27 16:25:00,
2013-07-27 12:41:00,74.7,67.0,30.04,SSE,160,1.0,4.0,78,0.00,,,1.96,weatherlink.com 1.10,2013-07-27 16:41:00,
2013-07-27 12:56:00,75.2,66.0,30.03,SSE,160,4.0,4.0,72,0.00,,,1.96,weatherlink.com 1.10,2013-07-27 16:56:00,
2013-07-27 13:11:00,74.8,70.0,30.03,SSE,160,1.0,3.0,84,0.00,,,1.96,weatherlink.com 1.10,2013-07-27 17:11:00,
2013-07-27 13:26:00,72.2,69.0,30.02,SSE,160,1.0,3.0,88,0.00,,,1.96,weatherlink.com 1.10,2013-07-27 17:26:00,
2013-07-27 13:41:00,70.7,68.0,30.02,SSE,162,1.0,5.0,92,0.00,,,1.96,weatherlink.com 1.10,2013-07-27 17:41:00,
2013-07-27 13:56:00,71.1,69.0,30.02,SSE,162,1.0,3.0,92,0.00,,,1.96,weatherlink.com 1.10,2013-07-27 17:56:00,
2013-07-27 14:11:00,69.9,68.0,30.01,SSE,162,0.0,2.0,92,0.00,,,1.96,weatherlink.com 1.10,2013-07-27 18:11:00,
2013-07-27 14:26:00,70.2,68.0,30.01,SSE,162,0.0,1.0,91,0.00,,,1.96,weatherlink.com 1.10,2013-07-27 18:26:00,
2013-07-27 14:41:00,71.3,69.0,30.00,SSE,162,0.0,1.0,91,0.00,,,1.96,weatherlink.com 1.10,2013-07-27 18:41:00,
2013-07-27 14:56:00,71.6,69.0,30.01,SSE,162,0.0,2.0,91,0.00,,,1.96,weatherlink.com 1.10,2013-07-27 18:56:00,
2013-07-27 15:11:00,71.1,68.0,30.01,SSE,162,0.0,3.0,91,0.00,,,1.96,weatherlink.com 1.10,2013-07-27 19:11:00,
2013-07-27 15:26:00,70.7,68.0,30.00,SSE,162,1.0,2.0,92,0.00,,,1.96,weatherlink.com 1.10,2013-07-27 19:26:00,
2013-07-27 15:41:00,72.6,69.0,30.00,SSE,162,1.0,2.0,89,0.00,,,1.96,weatherlink.com 1.10,2013-07-27 19:41:00,
2013-07-27 16:11:00,71.5,68.0,29.99,SSE,162,0.0,1.0,89,0.00,,,1.96,weatherlink.com 1.10,2013-07-27 20:11:00,
2013-07-27 16:26:00,71.6,69.0,29.99,SSE,162,0.0,1.0,90,0.00,,,1.96,weatherlink.com 1.10,2013-07-27 20:26:00,
2013-07-27 16:56:00,71.4,68.0,29.99,SSE,162,0.0,1.0,89,0.00,,,1.96,weatherlink.com 1.10,2013-07-27 20:56:00,
2013-07-27 17:11:00,71.5,68.0,29.99,SSE,162,0.0,1.0,88,0.00,,,1.96,weatherlink.com 1.10,2013-07-27 21:11:00,
2013-07-27 17:26:00,71.3,68.0,29.98,SSE,162,0.0,1.0,89,0.00,,,1.96,weatherlink.com 1.10,2013-07-27 21:26:00,
2013-07-27 18:11:00,70.7,68.0,29.98,SSE,162,0.0,1.0,91,0.00,,,1.96,weatherlink.com 1.10,2013-07-27 22:11:00,
2013-07-27 18:26:00,70.3,68.0,29.98,SSE,162,2.0,2.0,91,0.00,,,1.96,weatherlink.com 1.10,2013-07-27 22:26:00,
2013-07-27 18:41:00,69.6,67.0,29.98,SSE,162,0.0,1.0,92,0.00,,,1.96,weatherlink.com 1.10,2013-07-27 22:41:00,
2013-07-27 19:26:00,65.2,62.0,29.99,South,169,1.0,3.0,89,0.12,,,2.08,weatherlink.com 1.10,2013-07-27 23:26:00,
2013-07-27 20:56:00,64.6,64.0,30.00,South,169,0.0,2.0,96,0.50,,,2.65,weatherlink.com 1.10,2013-07-28 00:56:00,
2013-07-27 21:12:00,64.7,64.0,30.00,South,169,1.0,2.0,96,0.51,,,2.68,weatherlink.com 1.10,2013-07-28 01:12:00,
2013-07-27 21:42:00,64.5,63.0,30.01,South,169,0.0,1.0,96,0.41,,,2.68,weatherlink.com 1.10,2013-07-28 01:42:00,
2013-07-27 23:12:00,63.7,63.0,30.01,South,169,0.0,0.0,97,0.01,,,2.69,weatherlink.com 1.10,2013-07-28 03:12:00,
2013-07-27 23:42:00,63.6,63.0,30.01,South,169,0.0,0.0,97,0.01,,,2.69,weatherlink.com 1.10,2013-07-28 03:42:00,
2013-07-27 23:57:00,63.7,63.0,30.01,South,169,0.0,0.0,97,0.01,,,2.69,weatherlink.com 1.10,2013-07-28 03:57:00,